Location: Newark
(35.2161°N, 26.1013°E)
Time: 19:35:31
(UTC+00:00)

BEESAT 2 - Pass Details

Date: 26 January 2020
Orbit: 493 x 534 km, 64.9° (Epoch: 19 February)

Event Time Altitude Azimuth Distance (km) Brightness Sun altitude
Exits shadow 04:00:32 25° 321° (NW) 1,105 ? -16.2°
Maximum altitude 04:02:45 69° 243° (WSW) 570 ? -15.7°
Drops below altitude 10° 04:06:41 10° 160° (SSE) 1,762 ? -15.0°
Sets 04:08:51 0° 158° (SSE) 2,640 ? -14.5°
